DW8953 Weather Reports


time (UTC)temp
C
wind
direction
speed
KPH
gust
KPH
rain 1hr
cm
rain 24hr
cm
rain mn
cm
humidity
%
barometer
mb
20260906074556 25 0 0.0 0.0 0.00 0.00 0.00 38 1014.3
20260906073058 25 0 0.0 0.0 0.00 0.00 0.00 18 1014.6
20260906071555 25 0 0.0 0.0 0.00 0.00 0.00 12 1014.7
20260906070103 25 0 0.0 0.0 0.00 0.00 0.00 6 1014.7
20260906064557 25 0 0.0 0.0 0.00 0.00 0.00 100 1014.0
20260906063058 25 0 0.0 0.0 0.00 0.00 0.00 100 1013.8
20260906061554 25 0 0.0 0.0 0.00 0.00 0.00 100 1013.6
20260906060107 25 0 0.0 0.0 0.00 0.00 0.00 100 1013.4
20260906054614 25 0 0.0 0.0 0.00 0.00 0.00 100 1013.6
20260906053101 25 0 0.0 0.0 0.00 0.00 0.00 100 1013.5
20260906051558 25 0 0.0 0.0 0.00 0.00 0.00 100 1013.1
20260906050108 25 0 0.0 0.0 0.00 0.00 0.00 100 1013.0
20260906044600 25 0 0.0 0.0 0.00 0.00 0.00 100 1013.4
20260906043052 25 0 0.0 0.0 0.00 0.00 0.00 100 1013.6
20260906041551 25 0 0.0 0.0 0.00 0.00 0.00 100 1013.6
20260906040103 25 0 0.0 0.0 0.00 0.00 0.00 100 1013.5
20260906034601 25 0 0.0 0.0 0.00 0.00 0.00 100 1013.6
20260906033051 25 0 0.0 0.0 0.00 0.00 0.00 100 1013.6
20260906031608 25 0 0.0 0.0 0.00 0.00 0.00 100 1013.4
20260906030056 26 0 0.0 0.0 0.00 0.00 0.00 1 1013.4
20260906024608 26 0 0.0 0.0 0.00 0.00 0.00 7 1013.4
20260906023104 26 0 0.0 0.0 0.00 0.00 0.00 17 1013.1
20260906021552 26 0 0.0 0.0 0.00 0.00 0.00 25 1012.9
20260906020058 26 0 0.0 0.0 0.00 0.00 0.00 33 1012.7
20260906014555 27 0 0.0 0.0 0.00 0.00 0.00 39 1012.5
20260906013104 27 0 0.0 0.0 0.00 0.00 0.00 44 1012.2
20260906011555 27 0 0.0 0.0 0.00 0.00 0.00 53 1012.4
20260906010054 28 0 0.0 0.0 0.00 0.00 0.00 58 1012.1
20260906004550 28 0 0.0 0.0 0.00 0.00 0.00 59 1011.8
20260906003056 29 0 0.0 0.0 0.00 0.00 0.00 61 1012.0
20260906001605 30 0 0.0 0.0 0.00 0.00 0.00 61 1012.3
20260906000059 31 0 0.0 0.0 0.00 0.00 0.00 60 1012.7
20260905234605 33 0 0.0 0.0 0.00 0.00 0.00 57 1012.4
20260905233059 34 0 0.0 0.0 0.00 0.00 0.00 58 1011.9
20260905231554 34 0 0.0 0.0 0.00 0.00 0.00 59 1011.7
20260905230059 35 0 0.0 0.0 0.00 0.00 0.00 59 1011.7
20260905224554 35 0 0.0 0.0 0.00 0.00 0.00 58 1011.6
20260905223101 36 0 0.0 0.0 0.00 0.00 0.00 55 1011.7
20260905221553 36 0 0.0 0.0 0.00 0.00 0.00 56 1011.7
20260905220104 36 0 0.0 0.0 0.00 0.00 0.00 54 1011.8
20260905214558 37 0 0.0 0.0 0.00 0.00 0.00 53 1011.8
20260905213059 36 0 0.0 0.0 0.00 0.00 0.00 50 1011.7
20260905211606 36 0 0.0 0.0 0.00 0.00 0.00 50 1011.8
20260905210105 36 0 0.0 0.0 0.00 0.00 0.00 55 1011.8
20260905204600 36 0 0.0 0.0 0.00 0.00 0.00 54 1012.0
20260905203059 36 0 0.0 0.0 0.00 0.00 0.00 55 1012.2
20260905201556 36 0 0.0 0.0 0.00 0.00 0.00 53 1012.5
20260905200105 36 0 0.0 0.0 0.00 0.00 0.00 52 1012.6
20260905194605 36 0 0.0 0.0 0.00 0.00 0.00 58 1012.9
20260905193059 35 0 0.0 0.0 0.00 0.00 0.00 50 1013.1
20260905191550 35 0 0.0 0.0 0.00 0.00 0.00 56 1013.4
20260905190053 35 0 0.0 0.0 0.00 0.00 0.00 54 1013.5
20260905184604 35 0 0.0 0.0 0.00 0.00 0.00 57 1013.9
20260905183057 35 0 0.0 0.0 0.00 0.00 0.00 57 1014.0
20260905181602 34 0 0.0 0.0 0.00 0.00 0.00 56 1014.2
20260905180105 34 0 0.0 0.0 0.00 0.00 0.00 56 1014.3
20260905174556 34 0 0.0 0.0 0.00 0.00 0.00 57 1014.3
20260905173105 33 0 0.0 0.0 0.00 0.00 0.00 58 1014.5
20260905171558 33 0 0.0 0.0 0.00 0.00 0.00 57 1014.6
20260905170054 33 0 0.0 0.0 0.00 0.00 0.00 57 1014.8
20260905164553 33 0 0.0 0.0 0.00 0.00 0.00 57 1015.0
20260905163058 32 0 0.0 0.0 0.00 0.00 0.00 57 1015.4
20260905161555 32 0 0.0 0.0 0.00 0.00 0.00 57 1015.6
20260905160055 32 0 0.0 0.0 0.00 0.00 0.00 56 1015.6
20260905154608 31 0 0.0 0.0 0.00 0.00 0.00 42 1015.7
20260905153055 30 0 0.0 0.0 0.00 0.00 0.00 25 1015.8
20260905151551 28 0 0.0 0.0 0.00 0.00 0.00 2 1015.8
20260905150104 27 0 0.0 0.0 0.00 0.00 0.00 100 1015.8
20260905144600 26 0 0.0 0.0 0.00 0.00 0.00 100 1015.7
20260905143104 26 0 0.0 0.0 0.00 0.00 0.00 100 1015.9
20260905141558 25 0 0.0 0.0 0.00 0.00 0.00 100 1016.1
20260905140057 25 0 0.0 0.0 0.00 0.00 0.00 100 1016.1
20260905134605 25 0 0.0 0.0 0.00 0.00 0.00 100 1016.2
20260905133101 24 0 0.0 0.0 0.00 0.00 0.00 100 1016.3
20260905131608 23 0 0.0 0.0 0.00 0.00 0.00 100 1016.3
20260905124557 23 0 0.0 0.0 0.00 0.00 0.00 100 1016.3
20260905123048 23 0 0.0 0.0 0.00 0.00 0.00 100 1016.3
20260905121556 22 0 0.0 0.0 0.00 0.00 0.00 100 1016.3
20260905120056 22 0 0.0 0.0 0.00 0.00 0.00 100 1015.9
20260905114559 22 0 0.0 0.0 0.00 0.00 0.00 100 1015.8
20260905113055 22 0 0.0 0.0 0.00 0.00 0.00 100 1015.5
20260905111553 22 0 0.0 0.0 0.00 0.00 0.00 100 1015.3
20260905110107 22 0 0.0 0.0 0.00 0.00 0.00 100 1015.2
20260905104558 22 0 0.0 0.0 0.00 0.00 0.00 100 1015.1
20260905103055 22 0 0.0 0.0 0.00 0.00 0.00 100 1014.8
20260905101608 22 0 0.0 0.0 0.00 0.00 0.00 100 1014.7
20260905100053 22 0 0.0 0.0 0.00 0.00 0.00 100 1014.8
20260905094600 22 0 0.0 0.0 0.00 0.00 0.00 100 1014.7
20260905093057 23 0 0.0 0.0 0.00 0.00 0.00 100 1014.6
20260905091602 23 0 0.0 0.0 0.00 0.00 0.00 100 1014.5
20260905090058 23 0 0.0 0.0 0.00 0.00 0.00 100 1014.5
20260905084554 23 0 0.0 0.0 0.00 0.00 0.00 100 1014.7
20260905083051 23 0 0.0 0.0 0.00 0.00 0.00 100 1014.6
20260905081550 23 0 0.0 0.0 0.00 0.00 0.00 100 1014.5
20260905080106 23 0 0.0 0.0 0.00 0.00 0.00 100 1014.4